GFSSW_850_spd_159.txt.gz
Wind_Speed
24 22 23 24 23 22 21 20 19 18 17 16 16 15 13 13 13 11 10 11 12 12 11 12 7 5 3 2 5 3 4 2 4 7 5 15 6 4 10 11 6 6 17 15 11
26 24 23 22 22 21 20 19 18 17 17 17 16 16 15 13 13 14 14 15 15 13 10 9 5 3 2 2 1 2 3 5 2 1 7 9 12 10 6 10 6 13 11 10 10
25 26 24 23 21 20 19 18 17 15 14 14 14 14 13 10 9 7 11 13 16 16 12 8 4 0 2 3 2 1 4 3 4 9 9 10 9 4 10 3 10 18 15 13 11
29 26 25 23 23 21 19 17 16 14 13 11 10 9 9 7 5 1 4 8 9 11 12 9 4 2 2 2 5 1 2 5 1 5 5 3 7 6 5 7 5 13 16 13 9
33 30 27 25 23 21 19 17 15 13 11 10 9 8 7 6 5 5 2 3 1 4 9 11 8 4 2 3 3 2 3 6 5 5 7 1 4 2 6 10 3 5 7 8 8
29 33 31 27 25 23 20 18 16 14 11 10 9 8 8 5 5 8 5 3 3 4 9 12 5 4 4 2 4 2 8 3 2 2 3 3 4 5 6 16 12 8 7 9 9
33 30 34 32 28 25 23 20 18 15 13 11 9 9 9 7 5 2 8 5 4 8 7 9 8 4 1 2 4 5 3 5 2 2 1 4 6 8 16 9 11 15 13 9 10
37 34 30 30 32 26 25 22 20 16 14 12 10 9 5 5 11 6 5 6 4 9 8 10 7 6 2 6 4 3 3 1 4 12 3 7 7 7 16 28 22 16 12 14 11
37 37 37 33 32 29 26 25 21 17 14 11 10 6 4 5 11 9 6 7 5 9 8 8 9 3 4 5 3 0 3 5 4 13 5 5 5 7 3 12 17 17 11 12 10
34 38 38 35 34 32 28 26 22 18 15 11 8 5 9 7 8 12 12 13 6 7 8 6 2 3 1 3 5 5 3 4 6 5 4 4 8 9 18 11 13 13 14 15 15
37 42 38 35 38 35 34 30 20 10 21 9 7 3 9 13 8 10 15 15 10 9 3 4 3 5 6 5 5 4 1 5 2 1 2 5 7 9 23 20 20 20 21 18 14
23 35 36 36 40 40 41 38 35 12 9 17 10 7 10 12 7 10 17 9 7 5 4 3 4 6 8 7 6 2 1 2 2 5 3 6 12 12 18 20 25 27 25 22 16
29 37 37 36 41 43 47 43 31 13 6 13 17 11 12 12 7 16 22 8 5 6 7 6 4 15 5 3 5 3 4 2 1 3 2 3 9 5 8 25 26 24 17 18 21
46 31 43 39 44 49 48 37 29 16 4 6 12 10 17 9 3 13 25 12 6 10 7 5 6 7 4 4 4 2 4 4 1 3 3 4 5 6 5 4 7 13 15 19 20
34 53 50 43 37 53 49 33 31 19 5 8 10 12 20 16 17 12 26 10 7 6 6 7 7 5 7 5 6 3 1 7 3 2 3 3 2 7 5 6 5 11 21 17 13
37 42 42 44 35 53 45 40 32 6 8 5 8 13 13 11 7 12 14 7 3 2 2 3 1 5 6 3 5 4 3 4 3 3 2 9 7 5 3 5 4 12 20 16 12
34 41 54 50 38 57 49 37 6 6 1 8 7 11 16 10 9 8 11 10 7 6 7 3 3 1 3 5 2 5 4 2 1 2 5 2 4 7 4 3 8 14 18 16 12
36 40 51 58 42 59 51 11 9 4 7 4 8 12 12 14 7 10 14 11 9 3 8 6 3 7 5 6 6 7 6 4 6 4 3 1 5 5 5 4 16 24 23 18 13
35 39 52 56 51 54 39 10 8 7 8 10 11 13 5 12 6 9 14 14 13 9 5 5 5 2 3 4 7 6 9 3 3 1 2 4 5 7 6 5 15 24 21 17 14
38 43 46 51 59 58 15 10 6 8 13 16 6 6 11 12 6 13 14 12 7 10 3 3 3 1 2 3 2 3 4 1 2 3 4 4 3 5 6 6 6 10 14 12 10
44 21 31 56 56 41 10 5 5 15 25 5 6 7 7 10 8 9 14 6 13 12 7 2 4 2 5 6 11 4 3 4 3 3 4 1 4 4 4 6 8 10 12 12 9
14 4 38 65 11 5 8 10 7 14 9 4 5 5 10 16 5 7 6 2 23 19 12 5 3 4 4 2 3 6 4 4 3 3 3 3 5 6 6 9 16 13 9 6 6
10 8 32 51 6 7 7 5 6 10 5 6 5 4 5 10 5 5 6 7 12 13 13 7 4 2 2 3 4 6 7 5 3 2 5 4 4 4 10 6 7 6 5 7 7
8 4 6 22 9 10 16 9 7 10 4 5 5 6 8 12 3 8 4 1 5 11 13 10 3 4 7 3 5 7 11 11 9 4 7 10 7 13 12 2 5 12 12 13 19
5 3 3 4 5 13 6 8 16 5 4 6 3 5 9 5 3 6 5 4 5 8 7 8 3 8 2 3 2 3 6 8 9 7 8 2 8 7 8 11 20 21 21 23 22
6 5 9 5 17 15 8 11 21 6 8 5 8 6 4 8 7 8 7 4 5 2 5 1 2 3 3 5 4 4 6 4 4 5 6 9 15 10 21 19 23 27 30 32 34
15 14 9 3 5 7 4 11 12 11 1 12 12 6 6 5 10 10 9 12 11 7 6 6 5 3 5 2 3 6 8 10 8 6 6 10 15 12 13 17 19 26 29 31 34

GFSSW_850_spd_162.txt.gz
Wind_Speed
23 23 25 26 27 25 23 21 20 18 16 15 15 14 13 13 12 12 11 13 12 11 11 12 10 10 7 2 3 3 4 2 5 7 5 9 5 5 5 11 5 9 10 12 17
24 24 23 24 25 25 24 23 21 19 18 16 15 13 13 14 13 14 15 14 14 12 12 10 8 6 3 2 1 4 3 5 2 3 6 10 9 12 7 9 6 11 13 17 15
25 25 25 23 23 23 23 22 20 19 19 17 15 13 11 11 11 10 12 14 15 14 13 10 6 3 1 1 1 3 4 2 2 5 9 14 11 8 18 2 11 20 19 17 15
30 25 25 24 23 22 22 20 19 17 16 15 13 11 9 8 6 4 5 7 9 10 12 11 7 4 3 2 3 2 2 1 2 6 3 4 10 7 13 5 7 15 19 19 16
30 29 24 25 23 23 21 20 18 17 15 13 12 10 9 8 8 6 2 0 2 6 10 12 11 6 5 3 2 3 1 1 2 2 6 2 4 2 9 11 10 16 19 17 14
28 29 29 26 25 22 22 20 18 16 14 12 11 11 11 7 7 11 7 2 1 5 8 13 7 5 3 2 5 2 2 0 1 1 5 3 2 2 10 10 12 14 14 12 10
31 29 32 29 26 24 21 21 19 16 14 12 11 11 11 11 6 6 10 7 4 6 10 10 4 5 2 3 3 3 3 4 2 3 1 4 7 6 6 11 8 11 13 11 8
29 31 29 33 29 26 24 21 19 18 15 13 12 11 6 10 11 5 7 9 8 7 11 7 6 5 3 5 4 3 5 1 3 5 2 5 8 4 10 17 19 12 12 10 9
31 33 31 30 33 28 24 23 21 19 16 13 13 8 4 9 13 13 9 10 11 10 10 9 8 3 4 5 3 3 3 5 6 9 4 4 6 6 4 3 14 24 18 12 11
38 32 35 32 32 33 27 25 21 20 17 15 10 5 10 10 10 14 13 13 7 11 7 8 3 2 3 3 6 5 3 4 5 4 4 4 9 8 14 14 13 11 14 15 13
38 40 36 38 33 32 30 30 22 12 26 8 14 5 5 10 11 14 16 15 12 10 4 4 4 8 10 6 4 5 3 4 3 3 5 6 7 10 24 24 21 20 18 16 14
29 36 26 40 39 34 37 38 30 11 9 14 9 9 10 14 6 15 20 10 7 4 4 3 6 7 4 5 3 0 1 3 1 1 2 4 10 11 16 18 27 31 30 23 16
29 32 41 36 39 39 45 42 34 18 7 12 11 16 14 13 5 18 23 11 5 6 5 6 4 13 6 5 6 4 5 2 1 2 2 4 8 5 7 21 24 23 25 24 25
29 30 32 30 41 46 48 43 33 21 4 5 10 10 17 11 4 18 26 11 5 9 7 4 7 7 5 6 6 6 6 5 3 3 3 3 5 5 5 6 3 13 16 14 20
26 35 34 39 36 53 50 44 34 17 5 9 10 10 20 16 15 13 25 5 7 8 7 7 4 5 4 5 4 4 4 6 4 2 3 1 1 7 3 6 3 7 17 19 20
29 30 37 44 28 50 49 47 29 5 8 6 11 13 12 13 8 11 18 4 7 4 3 5 2 5 8 3 5 4 5 5 4 3 3 8 7 5 3 4 3 8 17 21 19
26 32 31 39 27 48 50 40 9 8 2 9 8 13 18 11 7 7 14 8 7 7 7 3 2 1 3 6 1 3 5 2 3 1 6 1 4 6 6 3 7 15 22 20 17
26 32 33 36 43 58 54 12 10 7 8 3 10 18 13 16 8 7 14 11 7 2 7 7 5 8 6 6 6 7 5 5 7 5 3 2 6 5 5 7 5 19 24 20 17
24 27 38 38 43 59 41 17 9 7 9 13 14 17 8 14 7 8 13 16 11 8 6 6 5 0 1 4 9 5 5 5 4 3 2 4 5 8 2 5 9 16 19 16 13
25 28 44 41 40 44 20 10 6 7 14 18 9 9 12 19 9 12 16 15 7 10 6 6 3 2 2 3 2 5 7 2 2 2 4 3 3 4 2 4 3 8 16 14 12
23 16 31 46 41 36 17 10 5 18 24 7 7 7 7 16 9 15 16 3 17 12 8 3 4 2 5 7 9 4 3 3 4 4 3 1 4 5 2 3 8 13 15 14 11
23 10 17 42 18 12 9 11 9 18 7 5 5 6 12 14 9 9 10 4 25 17 9 2 3 3 5 2 4 3 5 6 4 4 3 3 4 1 0 4 14 15 13 11 9
17 19 18 53 14 11 8 6 9 18 6 6 5 4 6 10 5 5 6 11 23 12 14 5 4 2 2 3 3 4 4 4 4 2 5 4 4 1 10 11 10 9 3 4 10
14 5 10 24 10 12 15 15 10 7 3 6 6 8 10 11 4 7 5 1 13 13 14 17 4 5 5 2 5 5 6 7 6 4 3 7 3 5 4 3 5 7 19 21 20
11 4 7 4 5 14 11 15 22 7 2 7 4 8 10 6 4 5 4 3 5 16 7 6 5 6 3 5 4 4 11 15 15 13 10 4 7 7 9 6 13 26 24 20 24
11 5 7 4 21 17 12 16 27 7 7 5 11 11 6 12 8 10 8 4 5 2 5 8 2 3 1 3 1 3 6 7 6 4 7 8 13 8 21 22 24 26 27 26 25
8 13 12 11 13 10 4 17 23 12 6 11 20 14 7 10 13 10 8 15 14 10 5 8 6 3 3 1 2 6 7 7 5 6 8 8 10 4 7 11 20 25 24 23 25

GFSSW_850_spd_165.txt.gz
Wind_Speed
27 25 25 28 28 26 24 23 21 19 17 16 15 14 13 13 13 13 14 15 13 13 14 13 11 10 8 3 3 1 4 1 4 6 4 12 5 10 8 14 8 10 5 3 16
25 25 24 25 27 28 26 24 22 20 18 16 14 13 12 12 12 16 16 15 14 14 13 12 10 7 2 2 1 3 3 7 3 2 2 6 13 17 9 12 5 11 8 15 17
26 25 24 22 24 26 26 25 22 21 19 17 15 13 12 10 10 11 15 17 17 15 14 12 8 4 2 1 1 2 4 3 1 2 5 5 6 9 13 3 14 23 21 21 18
29 25 24 24 22 23 24 24 23 21 19 17 15 13 11 9 6 4 8 11 12 13 13 11 7 2 1 2 2 2 1 2 2 4 1 4 4 4 10 3 16 18 21 22 19
28 30 26 26 24 22 22 22 21 19 17 15 14 12 11 9 9 5 3 3 5 8 10 12 10 6 4 2 0 2 2 0 1 3 5 2 3 2 4 5 12 21 22 21 18
27 30 29 25 26 23 22 21 20 18 17 15 14 13 13 6 9 12 8 3 1 4 9 13 7 6 3 1 4 2 1 1 2 2 4 2 1 3 5 5 10 22 23 20 17
24 27 29 27 26 25 23 21 20 18 16 15 14 13 13 16 7 11 14 8 4 3 9 12 6 6 5 3 3 4 2 4 2 1 1 2 5 5 4 7 9 14 19 19 17
36 25 28 30 26 26 24 22 21 19 16 15 14 13 7 11 13 9 10 10 8 5 10 11 7 5 4 6 5 4 4 1 2 3 1 4 6 4 5 9 13 11 15 17 15
31 38 28 30 31 27 25 23 22 19 17 16 14 8 5 9 17 13 8 11 11 8 10 10 8 3 4 5 3 4 3 4 6 7 2 3 5 5 2 3 9 13 17 17 14
33 41 32 32 33 30 26 24 22 21 18 15 11 6 11 9 13 16 12 11 9 11 8 8 4 3 3 3 6 6 4 4 5 3 4 4 9 7 9 11 14 11 9 20 15
24 32 36 31 31 33 29 29 20 13 28 7 14 5 1 9 10 14 15 12 9 9 4 4 4 8 11 4 3 5 3 4 3 4 4 6 8 9 21 18 21 24 17 13 14
26 27 32 44 34 36 35 35 29 7 8 12 9 7 4 11 6 15 17 10 6 4 4 4 6 4 4 3 4 1 3 4 1 1 5 3 10 10 14 14 25 28 28 22 18
26 26 32 40 25 34 43 39 28 21 5 8 9 16 8 13 4 18 20 7 3 5 5 6 4 9 6 4 5 2 3 2 0 3 2 5 7 6 6 16 23 28 30 27 27
23 27 25 30 29 33 42 41 28 21 3 5 9 8 15 10 3 14 23 9 3 8 6 3 3 6 5 4 6 4 6 4 3 3 3 2 5 6 4 7 5 9 19 21 24
24 22 32 36 36 20 44 39 32 18 7 11 11 9 20 14 15 11 23 5 7 5 6 7 5 4 3 5 7 5 5 5 2 1 2 1 1 7 4 6 6 2 9 13 18
25 24 24 25 36 27 41 41 29 6 7 7 11 11 12 9 5 10 15 6 6 4 2 5 0 6 9 4 6 6 6 6 4 2 3 7 7 5 4 4 1 3 9 15 18
26 24 24 35 31 48 38 41 10 8 5 10 9 14 19 10 6 6 13 9 7 7 6 2 2 1 3 6 2 4 6 1 2 2 6 1 2 7 7 5 5 11 18 19 19
26 24 27 32 32 32 39 12 12 7 7 3 10 18 15 13 8 7 14 12 8 3 5 10 4 8 6 7 7 5 6 5 7 4 4 3 6 5 2 5 6 13 19 18 16
22 25 24 34 28 36 30 17 10 10 9 13 17 18 9 13 7 11 14 15 11 9 6 5 4 2 2 3 8 5 6 5 5 2 2 3 6 9 2 6 10 13 18 15 11
22 21 29 36 28 30 3 14 8 7 9 17 9 11 13 19 10 16 16 15 7 10 6 6 3 1 1 4 4 5 7 2 2 1 4 3 5 4 2 3 4 6 14 12 9
22 7 10 28 25 25 9 7 4 12 17 8 7 8 9 15 10 15 14 3 17 10 11 4 3 0 5 6 10 4 4 3 5 4 4 1 5 5 4 2 8 11 12 9 5
21 4 7 20 8 2 7 6 5 13 6 4 5 6 12 20 12 15 10 6 24 19 10 4 3 5 11 2 3 4 5 5 4 4 3 2 5 3 5 5 9 11 8 4 2
12 13 7 25 9 4 3 7 10 15 7 7 5 4 5 13 6 4 7 12 20 13 15 7 3 4 1 3 4 4 4 6 4 3 6 5 4 3 5 8 11 12 9 0 7
9 4 9 14 15 11 7 8 7 22 5 5 6 8 9 13 3 9 6 2 17 11 13 10 2 4 5 3 5 7 9 6 11 5 5 5 3 5 4 5 8 10 5 12 9
13 6 9 8 6 14 13 11 13 7 3 10 3 8 11 8 4 5 5 4 5 15 7 6 6 4 2 2 2 4 10 15 14 11 8 7 9 8 7 7 13 12 12 14 13
12 6 6 5 20 21 19 19 24 8 8 7 11 14 9 16 10 11 10 5 6 2 5 3 3 4 3 2 0 4 8 9 10 7 7 4 10 6 14 14 19 22 16 15 16
24 19 5 11 13 17 10 20 28 15 1 8 18 15 7 12 16 16 10 13 14 11 5 6 5 3 2 4 4 7 7 7 5 5 11 14 16 7 9 15 17 17 14 15 14

GFSSW_850_spd_168.txt.gz
Wind_Speed
26 26 24 24 24 22 25 21 18 18 17 17 16 15 15 16 16 16 14 13 12 13 13 14 11 11 8 4 4 2 4 2 4 5 3 7 3 8 7 13 9 12 7 8 16
27 25 25 24 24 24 23 24 22 17 16 16 16 15 14 14 15 17 15 15 15 14 14 12 11 8 3 3 2 4 3 7 4 3 2 2 3 12 6 10 5 12 11 12 19
25 26 24 24 23 24 24 22 19 18 17 15 14 14 13 11 12 11 14 16 17 15 14 12 7 4 1 2 1 2 4 3 1 1 2 2 2 8 8 3 11 24 19 20 22
21 27 25 23 22 22 23 23 21 19 18 16 14 13 12 9 5 2 7 9 13 14 12 10 5 2 1 1 1 2 1 1 1 3 2 2 1 4 12 5 12 16 19 25 24
16 20 25 23 23 21 21 22 21 20 19 17 15 13 11 9 10 7 3 4 6 8 9 10 8 5 4 3 2 2 2 1 2 3 3 2 2 2 7 5 9 17 23 24 21
24 19 26 23 23 22 21 20 20 19 18 17 15 14 14 6 10 12 9 4 0 2 6 10 6 7 4 2 4 2 2 1 0 1 1 1 1 0 4 3 10 19 23 21 20
23 24 26 25 23 23 21 20 19 18 17 16 15 14 14 17 7 11 14 9 3 1 3 9 6 7 7 3 4 3 2 3 2 2 0 2 3 5 4 6 9 17 20 19 16
26 33 17 19 26 23 23 21 20 19 18 17 15 15 8 11 16 9 12 13 7 3 5 9 6 4 3 7 5 4 4 2 2 2 1 4 7 1 8 8 9 13 16 18 17
22 30 31 22 27 23 24 22 21 19 18 17 16 11 6 8 15 14 10 11 9 6 8 9 7 3 4 6 3 4 4 4 6 7 2 3 5 6 7 9 14 16 16 19 18
25 27 26 26 25 25 25 24 24 21 19 17 11 6 10 8 13 19 10 11 9 9 8 6 3 3 2 3 6 5 3 2 3 1 1 1 9 7 7 6 9 9 13 18 20
23 22 27 24 30 26 26 26 20 12 28 9 17 4 7 9 11 14 15 12 10 9 4 3 3 7 10 4 3 6 4 3 3 3 2 6 7 10 21 15 19 19 17 13 23
19 25 24 27 38 23 26 24 24 8 10 11 13 10 6 10 5 14 17 9 6 4 6 4 5 3 5 4 5 3 3 2 1 2 3 5 10 11 11 14 25 29 28 24 18
23 22 21 27 24 33 30 38 19 22 5 7 15 13 12 13 5 18 19 9 5 5 4 5 1 9 5 3 5 3 5 3 2 4 2 6 7 6 5 13 22 28 30 28 27
25 23 17 18 23 33 20 31 23 20 3 6 10 9 13 10 2 18 20 8 2 7 6 3 1 6 4 4 5 3 5 3 2 3 3 3 5 6 5 8 6 10 15 27 27
19 21 23 24 13 27 30 34 28 15 6 11 10 9 18 12 16 10 17 6 7 6 7 6 5 4 3 4 5 6 4 6 2 3 2 1 2 7 3 7 7 4 3 7 17
21 19 18 24 20 26 25 31 22 6 7 7 10 12 10 5 4 8 9 6 7 4 3 4 1 5 8 3 7 7 6 7 4 3 2 6 6 4 4 4 4 2 4 7 13
20 19 21 20 20 23 29 30 8 8 3 9 7 13 17 8 5 5 10 8 6 5 4 2 1 1 3 6 3 3 6 3 3 1 5 2 3 8 8 6 5 5 7 11 15
15 21 21 23 29 21 36 8 8 3 9 4 10 16 12 12 4 5 13 11 5 4 4 5 3 7 5 5 6 4 5 5 6 4 4 2 5 5 3 5 4 5 13 14 15
15 19 24 23 20 23 24 6 3 7 6 13 17 19 8 10 7 7 13 11 11 8 6 5 4 0 2 3 6 5 4 4 5 2 2 4 6 8 2 5 6 12 15 13 12
18 14 22 21 16 15 4 9 4 3 9 17 10 11 16 19 8 14 13 11 7 7 1 6 2 1 1 3 4 5 8 2 2 2 4 4 5 5 3 1 2 6 11 12 9
18 6 4 23 16 15 3 4 3 13 11 7 6 7 10 14 9 13 13 2 11 10 8 5 3 2 4 4 8 4 3 3 4 4 4 1 5 5 2 4 6 10 12 10 8
17 2 8 19 5 4 4 8 7 7 5 4 5 5 10 19 9 15 12 7 23 21 10 6 4 3 8 2 2 1 5 5 4 4 3 2 5 3 4 2 12 15 13 8 5
15 4 11 24 5 5 1 4 7 3 4 5 4 3 4 10 6 6 7 8 19 15 15 7 2 4 2 1 3 4 4 5 4 3 6 5 4 4 1 5 12 15 13 8 2
10 3 3 15 6 10 2 6 9 15 8 1 6 5 9 11 3 9 8 2 17 17 17 13 3 5 8 4 6 6 8 10 11 8 4 6 2 3 2 4 6 10 9 3 1
10 6 10 5 9 8 10 7 9 6 4 9 4 11 11 6 4 5 5 3 4 14 9 4 5 4 1 2 2 4 9 10 18 15 10 6 9 9 8 7 11 8 11 14 15
12 7 8 2 11 13 15 10 15 5 7 9 12 15 10 11 17 10 10 6 7 4 5 1 3 3 2 2 3 5 10 12 14 7 9 3 5 5 18 9 7 13 25 31 22
20 17 18 10 6 11 14 18 18 13 12 9 4 10 8 6 13 18 11 21 12 13 7 7 5 3 4 3 3 9 8 10 7 6 11 13 15 9 11 19 28 31 27 25 18

GFSSW_850_spd_171.txt.gz
Wind_Speed
22 21 20 20 25 34 36 16 16 24 18 15 13 12 12 12 12 12 12 10 11 12 12 10 9 8 6 4 4 3 4 3 6 6 3 9 5 7 6 9 8 9 6 8 18
21 21 20 19 18 21 25 32 26 11 15 13 12 12 12 13 13 14 14 14 14 14 12 10 8 5 2 2 2 4 4 7 3 3 2 5 4 13 7 10 7 13 10 13 19
14 20 21 20 19 20 21 23 26 15 11 10 12 11 12 11 11 8 12 14 16 15 13 9 5 2 2 1 1 3 4 5 3 3 2 3 5 10 9 3 13 23 19 17 22
9 16 21 22 21 19 21 21 19 16 15 15 13 11 11 8 4 1 6 8 11 12 11 8 3 2 2 3 1 3 4 5 4 3 4 3 5 6 12 6 14 14 17 19 24
20 11 15 23 21 20 19 21 19 17 15 16 15 14 10 9 8 6 3 3 4 6 8 8 7 6 4 3 3 2 4 5 5 3 3 4 4 5 11 11 9 15 19 22 24
21 22 16 21 22 20 19 21 20 19 18 17 16 14 13 7 9 12 11 8 3 2 4 7 6 7 4 2 3 3 4 4 4 3 1 4 4 4 6 11 11 15 21 24 24
19 21 18 16 22 21 19 20 20 19 18 18 16 14 13 14 7 12 13 10 5 1 3 6 6 8 7 4 4 5 2 2 4 4 3 2 3 6 7 8 11 17 21 24 22
14 19 22 17 12 20 21 20 20 19 19 17 15 14 6 12 14 7 10 11 7 3 5 8 7 8 6 9 5 4 4 2 2 3 2 5 8 4 10 12 11 16 20 21 21
19 15 22 29 26 20 21 19 22 20 18 16 15 9 5 9 13 18 10 12 9 6 8 8 8 4 7 6 3 5 4 4 7 3 1 3 7 3 10 11 12 14 18 18 19
21 19 18 19 22 20 22 21 24 23 19 16 9 7 9 10 16 18 12 11 10 11 9 6 3 3 3 3 6 6 3 2 3 3 3 1 9 4 3 5 9 15 17 17 19
23 16 19 25 24 30 18 18 22 13 31 10 18 5 8 12 14 19 16 15 13 10 5 3 3 6 6 1 3 7 4 2 2 2 1 4 7 13 17 15 17 16 17 18 19
22 16 22 20 25 30 27 17 24 5 9 9 10 8 12 16 7 18 18 11 10 5 6 4 4 4 6 5 5 4 4 2 2 2 3 3 11 12 11 13 24 28 27 24 21
17 17 19 18 22 29 36 20 23 23 8 10 14 13 17 16 7 20 24 13 6 5 4 5 1 9 7 3 6 2 5 3 3 2 1 5 7 5 4 9 20 26 25 25 28
15 20 12 17 22 27 34 30 17 13 3 8 13 10 15 11 4 18 21 10 3 6 6 3 2 6 5 4 4 4 5 5 2 2 3 3 5 6 4 7 5 13 11 18 26
15 17 19 15 6 33 28 30 15 10 7 12 11 11 23 15 19 14 13 6 8 6 7 4 6 7 4 5 6 5 5 5 2 3 3 2 1 7 4 5 3 7 4 6 13
14 15 19 18 20 15 22 14 8 4 7 10 11 11 12 6 3 10 7 6 9 5 4 3 2 5 7 3 5 8 6 6 4 2 2 4 4 5 3 2 4 4 4 3 7
13 16 18 16 19 26 17 17 3 3 4 7 8 14 16 6 5 6 10 6 6 5 4 1 1 1 4 7 3 2 5 3 3 2 5 1 2 9 7 5 4 9 2 4 9
13 17 17 15 13 11 20 3 5 4 6 1 10 18 10 13 3 6 14 11 4 5 4 6 2 7 4 5 6 4 5 4 6 3 3 1 5 5 2 3 5 2 9 12 14
16 15 19 16 14 11 11 3 4 0 4 9 15 19 6 11 7 10 15 12 8 7 6 5 1 1 1 3 5 6 4 4 6 2 2 3 6 8 2 3 6 8 13 14 14
20 11 10 16 15 7 1 3 5 5 5 14 8 8 13 17 6 9 15 7 7 6 3 6 4 2 1 3 4 4 7 3 2 1 4 4 4 5 2 2 2 5 11 12 11
19 8 5 15 15 4 2 3 2 7 3 4 4 6 8 14 7 9 15 3 7 9 4 5 3 1 3 6 8 4 3 3 4 3 4 1 5 5 4 4 6 11 12 12 11
18 2 15 21 4 2 3 4 5 5 6 4 3 4 8 15 7 9 11 5 21 20 9 5 4 4 6 0 1 2 6 5 4 4 3 2 5 2 6 7 10 12 12 11 11
17 6 12 21 4 2 2 3 6 5 5 4 4 3 3 9 6 5 7 7 23 15 13 7 2 4 1 1 2 4 4 4 4 3 5 4 4 2 3 4 11 15 16 12 9
9 3 7 16 6 6 3 4 5 7 6 10 3 6 7 11 4 8 6 2 18 14 18 12 3 5 8 5 6 6 7 10 10 7 5 7 2 2 3 5 7 16 16 10 7
8 6 10 5 8 7 11 8 9 5 3 7 4 7 9 6 3 5 5 4 3 14 9 6 5 4 2 2 3 4 9 10 17 15 9 8 12 7 9 11 20 20 17 11 10
14 7 5 4 9 9 11 9 11 6 11 8 12 10 8 9 11 10 10 6 6 4 11 3 2 3 1 3 1 4 9 12 17 13 13 7 9 8 21 14 18 22 23 16 18
27 21 21 11 7 9 10 11 22 12 12 16 21 16 16 4 10 18 13 18 10 11 13 9 5 3 3 2 4 10 14 13 9 11 16 18 20 7 8 17 24 26 29 29 28

GFSSW_850_spd_174.txt.gz
Wind_Speed
18 20 20 18 21 25 33 40 17 28 21 19 17 15 12 9 7 6 6 5 5 6 7 8 7 7 4 3 4 2 3 5 6 8 6 10 10 6 6 7 6 7 2 7 19
9 18 19 20 15 17 23 38 26 19 13 21 15 13 10 7 7 8 8 7 8 8 8 7 6 4 1 2 2 1 2 5 2 4 5 12 9 11 7 8 8 8 8 14 20
3 15 17 18 18 14 15 27 36 28 27 14 15 10 9 6 6 5 7 8 9 10 9 6 4 2 1 1 1 2 2 5 3 3 4 9 8 8 8 9 14 17 15 18 21
12 9 12 20 20 18 16 14 20 23 31 28 14 7 6 6 5 3 5 5 7 9 8 5 3 2 2 2 1 3 2 2 6 4 3 5 7 7 15 9 11 9 14 19 23
20 22 14 14 20 20 19 19 16 17 22 25 19 19 12 8 7 6 5 5 1 5 6 7 7 4 4 3 3 2 5 2 3 3 3 4 5 7 12 12 9 14 18 21 21
12 12 21 9 22 21 21 20 21 18 18 19 16 21 21 12 11 14 11 8 2 3 5 8 6 6 4 2 2 3 5 4 3 2 1 3 3 3 6 12 15 13 19 21 22
15 12 19 16 9 21 21 23 22 21 20 18 17 17 17 13 10 14 12 11 9 4 5 8 8 6 7 6 2 5 4 3 5 4 2 3 4 9 7 9 12 13 14 17 20
21 12 16 17 19 19 23 23 25 22 21 19 17 15 6 13 12 11 14 12 9 5 7 10 10 9 4 9 4 3 1 4 3 4 3 4 11 8 7 8 10 11 13 15 18
14 12 14 17 23 16 20 25 25 24 21 18 17 11 4 11 19 14 13 13 11 9 11 11 11 5 7 6 3 1 5 8 2 1 1 7 7 2 3 5 10 11 14 16 20
10 19 13 16 17 22 11 19 26 23 22 18 12 9 8 14 21 22 13 13 12 14 11 7 3 4 4 7 11 8 6 3 5 2 3 6 16 5 1 5 10 13 12 16 19
9 19 13 11 15 22 14 14 23 14 29 10 14 2 14 16 19 21 20 19 15 9 6 3 6 11 13 9 1 6 5 6 2 1 3 8 14 14 13 13 14 15 15 16 17
7 16 15 15 17 14 28 9 19 9 11 8 10 6 19 22 10 22 24 12 15 10 10 5 10 7 7 7 5 5 5 3 1 1 3 5 15 17 15 17 20 23 22 19 17
8 16 15 14 16 19 22 26 9 23 6 10 14 10 18 18 7 24 25 12 15 12 14 10 2 14 9 8 10 4 7 3 2 1 1 7 10 7 4 10 13 17 20 23 24
10 13 13 14 13 23 26 27 25 2 3 8 14 11 17 14 5 20 23 10 5 11 11 4 4 14 12 11 10 9 7 6 5 3 4 3 5 4 3 6 7 8 10 16 20
12 12 16 10 13 26 18 21 24 6 5 11 10 14 21 10 21 13 15 5 11 8 7 6 9 14 13 8 9 2 8 6 2 3 3 4 4 5 3 4 3 4 2 5 9
14 13 15 15 14 10 17 22 16 3 7 7 11 13 15 6 3 19 13 5 9 5 6 4 2 4 4 3 9 13 9 6 3 2 4 4 6 5 4 1 1 5 5 5 6
16 14 15 18 14 16 16 22 4 5 1 6 8 15 17 7 7 15 16 11 8 8 8 4 3 2 4 9 5 4 10 2 4 4 3 3 5 9 5 6 8 10 4 2 5
17 15 14 12 12 13 9 3 3 4 4 2 9 18 11 13 6 13 19 14 6 3 10 9 5 9 6 4 8 7 5 3 5 4 2 2 6 3 1 3 5 3 3 5 7
20 18 15 14 12 11 14 2 5 2 2 5 15 14 5 13 9 13 17 16 14 9 6 7 3 2 2 3 10 7 8 2 5 1 2 4 4 9 2 1 0 2 5 7 9
25 16 13 14 12 15 3 3 4 5 2 4 3 7 8 20 11 16 17 15 10 8 2 6 6 1 2 3 3 5 12 4 1 4 5 3 4 6 2 2 3 5 7 9 12
22 9 11 16 14 5 2 3 2 5 12 3 3 6 9 12 13 15 18 9 12 10 4 4 3 4 5 9 13 5 5 1 3 1 2 2 3 2 4 3 3 9 11 12 14
18 3 19 21 4 3 2 5 4 6 5 4 3 3 7 16 8 13 18 10 21 22 10 4 4 4 7 3 3 4 7 7 5 5 3 1 4 4 4 6 7 9 11 12 13
13 6 21 22 5 4 2 2 4 5 4 5 2 6 3 11 6 11 9 5 22 19 18 10 5 5 3 3 2 7 8 10 3 2 8 5 3 3 3 5 8 15 15 16 16
9 4 7 13 5 6 7 5 4 4 6 7 3 5 3 11 3 10 12 2 17 19 11 14 4 4 9 3 10 11 16 16 16 6 8 13 8 7 5 7 12 16 17 17 17
6 4 8 6 10 7 10 11 10 7 5 8 3 7 5 3 6 7 6 5 7 14 7 9 4 5 2 2 5 7 18 20 22 21 12 10 20 17 12 13 20 23 19 17 18
12 6 6 4 13 10 8 8 14 6 9 8 7 15 14 6 11 9 9 8 7 8 11 5 3 4 3 1 1 6 14 19 21 22 23 21 23 13 20 15 20 25 25 23 24
16 9 8 12 7 10 10 16 17 11 9 11 17 8 14 17 13 8 6 13 11 13 14 11 6 4 6 2 3 10 16 17 17 22 22 22 21 14 13 17 24 28 29 36 31